Location: Munderkingen
(48.2395°N, 9.6433°E)
Time: 19:55:22
(UTC+02:00)

ISS - Pass Details

Date: 23 March 2017
Orbit: 399 x 409 km, 51.6° (Epoch: 29 March)

Event Time Altitude Azimuth Distance (km) Brightness Sun altitude
Exits shadow 04:29:56 21° 169° (SSE) 992 -2.0 -18.3°
Drops below altitude 10° 04:31:21 10° 152° (SSE) 1,469 -0.9 -18.1°
Sets 04:33:34 0° 141° (SE) 2,327 0.2 -17.8°
